Kingsville NAS, TX

4:14 PM CDT on May 25, 2018 (GMT -0500)
Kingsville Naval Air Station

Weather History for KNQI - October, 2014

Change the Weather History Date:

Friday, October 24, 2014

  Actual Average Record
Temperature  
Mean Temperature 74 °F -  
Max Temperature 88 °F 81 °F 93 °F (2001)
Min Temperature 61 °F 62 °F 46 °F (2007)
Cooling Degree Days 9    
Growing Degree Days 24 (Base 50)    
Moisture  
Dew Point 63 °F    
Average Humidity 76    
Maximum Humidity 100    
Minimum Humidity 41    
Precipitation  
Precipitation 0.00 in - - ()
Sea Level Pressure  
Sea Level Pressure 30.10 in    
Wind  
Wind Speed 4 mph (NE)    
Max Wind Speed 10 mph    
Max Gust Speed -    
Visibility 9 miles    
Events      
Averages and records for this station are not official NWS values.
T = Trace of Precipitation, MM = Missing Value Source: NWS Daily Summary

Daily Weather History Graph

Daily Weather History Graph

Search for Another Location

Airport or City:

Astronomy

Oct. 24, 2014 Rise Set
Actual Time 7:36 AM CDT 6:53 PM CDT
Civil Twilight 7:12 AM CDT 7:17 PM CDT
Nautical Twilight 6:45 AM CDT 7:45 PM CDT
Astronomical Twilight 6:18 AM CDT 8:12 PM CDT
Moon 8:14 AM CDT (10/24) 7:39 PM CDT (10/24)
Length of Visible Light 12h 04m
Length of Day
11h 17m
New Moon, 1% of the Moon is Illuminated
Oct 24
New Moon
Oct 30
First Quarter
Nov 6
Full
Nov 14
Last Quarter
Nov 22
New

Hourly Weather History & Observations

Time (CDT) Temp. Heat Index Dew Point Humidity Pressure Visibility Wind Dir Wind Speed Gust Speed Precip Events Conditions
12:56 AM 64.9 °F - 64.0 °F 97% 30.08 in 10.0 mi Calm Calm - N/A   Clear
1:56 AM 66.0 °F - 64.0 °F 93% 30.08 in 10.0 mi Calm Calm - N/A   Clear
2:56 AM 64.0 °F - 63.0 °F 96% 30.08 in 10.0 mi Calm Calm - N/A   Clear
3:56 AM 62.1 °F - 62.1 °F 100% 30.08 in 8.0 mi NNW 5.8 mph - N/A   Clear
4:56 AM 62.1 °F - 62.1 °F 100% 30.08 in 9.0 mi WNW 5.8 mph - N/A   Clear
5:56 AM 61.0 °F - 61.0 °F 100% 30.09 in 7.0 mi NW 4.6 mph - N/A   Clear
6:56 AM 61.0 °F - 61.0 °F 100% 30.09 in 5.0 mi NNW 5.8 mph - N/A   Partly Cloudy
7:56 AM 61.0 °F - 61.0 °F 100% 30.12 in 4.0 mi North 5.8 mph - N/A   Partly Cloudy
8:56 AM 68.0 °F - 66.9 °F 96% 30.13 in 5.0 mi North 4.6 mph - N/A   Partly Cloudy
9:56 AM 75.0 °F - 68.0 °F 79% 30.15 in 10.0 mi NNW 5.8 mph - N/A   Clear
10:56 AM 80.1 °F 82.3 °F 66.9 °F 64% 30.15 in 10.0 mi ENE 4.6 mph - N/A   Partly Cloudy
11:56 AM 81.0 °F 83.0 °F 66.0 °F 60% 30.15 in 10.0 mi NE 6.9 mph - N/A   Partly Cloudy
12:56 PM 84.9 °F 86.6 °F 64.9 °F 51% 30.13 in 10.0 mi ENE 6.9 mph - N/A   Partly Cloudy
1:56 PM 86.0 °F 86.1 °F 61.0 °F 43% 30.10 in 10.0 mi ENE 9.2 mph - N/A   Partly Cloudy
2:56 PM 87.1 °F 87.0 °F 61.0 °F 41% 30.07 in 10.0 mi NE 10.4 mph - N/A   Partly Cloudy
3:56 PM 87.1 °F 87.0 °F 61.0 °F 41% 30.06 in 10.0 mi ENE 8.1 mph - N/A   Partly Cloudy
4:56 PM 86.0 °F 86.3 °F 62.1 °F 44% 30.06 in 10.0 mi East 10.4 mph - N/A   Partly Cloudy
5:56 PM 82.9 °F 83.3 °F 61.0 °F 47% 30.06 in 10.0 mi East 6.9 mph - N/A   Clear
6:56 PM 77.0 °F - 61.0 °F 58% 30.07 in 10.0 mi SE 9.2 mph - N/A   Clear
7:56 PM 73.0 °F - 63.0 °F 71% 30.09 in 10.0 mi SE 8.1 mph - N/A   Clear
8:56 PM 69.1 °F - 62.1 °F 78% 30.11 in 10.0 mi SSE 6.9 mph - N/A   Clear
9:56 PM 66.9 °F - 62.1 °F 84% 30.12 in 10.0 mi South 4.6 mph - N/A   Clear
10:56 PM 66.9 °F - 62.1 °F 84% 30.13 in 10.0 mi Calm Calm - N/A   Clear
11:56 PM 64.9 °F - 61.0 °F 87% 30.13 in 10.0 mi South 3.5 mph - N/A   Clear